Terug naar catalogus

STARLINK-37062

ActiefCommunicatieVLEO
NORAD 68087·PAYLOAD·🇺🇸 United States

Gelanceerd Mar 4, 2026 vanaf Vandenberg Space Force Base

Loading…

Volgende Passages (komende 24 uur)

TLE

VersSource: CelesTrak SupGP

Epoch: Sep 15, 2026, 03:42 UTC

1 68087C 26042U   26258.15465278  .00066623  00000+0  19689-2 0  2589
2 68087  53.1590  14.3837 0001334  96.0182 253.9747 15.34349547    10

Volg STARLINK-37062 in realtime met AllMySat

Download on the App Store